Regional Weather Roundup
Issued by NWS

Home | Current Version | Previous Version | Graphics & Text | Print | Product List | Glossary Off
Versions: 1 2 3 4 5 6 7 8 9 10 11 12 13 14 15 16 17 18 19 20 21 22 23 24 25 26 27 28 29 30 31 32 33 34 35 36 37 38 39 40 41 42 43 44 45 46 47 48 49 50

000
ASUS43 KMKX 041100
RWRWI

WISCONSIN REGIONAL WEATHER ROUNDUP
NATIONAL WEATHER SERVICE MILWAUKEE/SULLIVAN WI
600 AM CDT TUE AUG 04 2015

NOTE: "FAIR" INDICATES FEW OR NO CLOUDS BELOW 12,000 FEET WITH NO
SIGNIFICANT WEATHER AND/OR OBSTRUCTIONS TO VISIBILITY.

WIZ001-002-006>008-014>016-023>028-041200-
NORTHWEST WISCONSIN

CITY           SKY/WX    TMP DP  RH WIND       PRES   REMARKS
SUPERIOR ARPT  CLEAR     49  49  97 SW3       29.92R
ASHLAND        CLEAR     52  51  97 W6        29.91R
HAYWARD        CLEAR     47  44  90 CALM      29.94S
SIREN          CLEAR     51  49  93 CALM      29.94S
CUMBERLAND     CLEAR     50  48  93 CALM      29.95S
RICE LAKE      FOG       50  49  95 CALM      29.95S VSB 1/4
CHETEK         CLEAR     52  51  98 CALM      29.94S
LADYSMITH      CLEAR     52  50  93 CALM      29.96R
EAU CLAIRE     NOT AVBL
MENOMONIE      CLEAR     55  53  92 CALM      29.94S
NEW RICHMOND   CLEAR     52  52  99 CALM      29.95S FOG
OSCEOLA        CLEAR     49  49 100 CALM      29.97F
$$

WIZ003>005-009-010-017-018-041200-
NORTH CENTRAL WISCONSIN

CITY           SKY/WX    TMP DP  RH WIND       PRES   REMARKS
MANITOWISH WTR MOCLDY    54  54 100 W5        29.91R
ARBOR VITAE    CLOUDY    57  55  92 NW3       29.91S
WOODRUFF       CLOUDY    57  55  92 NW3       29.91S
RHINELANDER    PTCLDY    53  51  93 W6        29.92R
EAGLE RIVER    CLOUDY    54  54 100 W6        29.90S
LAND O LAKES   CLOUDY    56  55  96 W5        29.91R
PHILLIPS       CLEAR     51  51 100 CALM      29.93R
TOMAHAWK       PTCLDY    53  51  93 W3        29.93R
MEDFORD        CLEAR     50  50  99 W6        29.94R
MERRILL        NOT AVBL
$$

WIZ029-030-035-036-043>047-041200-
CENTRAL WISCONSIN

CITY           SKY/WX    TMP DP  RH WIND       PRES   REMARKS
WAUSAU         CLEAR     58  54  86 NW5       29.92R
MOSINEE        CLEAR     55  55 100 NW6       29.90F
MARSHFIELD     CLEAR     55  50  83 NW8       29.93S
STEVENS POINT  CLEAR     56  53  88 NW7       29.93R
WAUPACA        PTCLDY    57  54  91 CALM      29.90S
WAUTOMA        NOT AVBL
WISC RAPIDS    CLEAR     57  52  83 NW7       29.94R
CAMP DOUGLAS   NOT AVBL
$$

WIZ011>013-019>022-031-037>040-048>050-041200-
NORTHEAST WISCONSIN

CITY           SKY/WX    TMP DP  RH WIND       PRES   REMARKS
ANTIGO         PTCLDY    53  52  98 W5        29.92R
SHAWANO        CLEAR     56  54  94 W5        29.90R
OCONTO         PTCLDY    53  53 100 CALM      29.87S
STURGEON BAY   MOCLDY    61  54  77 NW5       29.90R
GREEN BAY      CLEAR     55  54  96 CALM      29.89S
MANITOWOC      NOT AVBL
APPLETON       MOCLDY    54  52  94 VRB3      29.90F
CLINTONVILLE   CLEAR     54  52  94 W3        29.90R
OSHKOSH        CLEAR     59  51  75 W6        29.90R
$$

WIZ032>034-041-042-053>061-041200-
SOUTHWEST WISCONSIN

CITY           SKY/WX    TMP DP  RH WIND       PRES   REMARKS
LA CROSSE      CLEAR     59  56  89 CALM      29.95R
SPARTA         CLEAR     47  46  96 CALM      29.95R
VIROQUA        CLEAR     53  52  99 CALM      29.95S
BOSCOBEL       PTCLDY    53  51  93 SW5       29.96R
PRAIRIE DU CHI CLEAR     55  52  90 CALM      29.96R
PLATTEVILLE    CLEAR     57  55  95 W3        29.95S
$$

WIZ056-057-062-063-064-067-068-041200-
SOUTH CENTRAL WISCONSIN

CITY           SKY/WX    TMP DP  RH WIND       PRES   REMARKS
REEDSBURG      CLEAR     53  52  95 CALM      29.93R
BARABOO/DELLS  PTCLDY    54  50  85 CALM      29.93R
LONE ROCK      NOT AVBL
MINERAL POINT  CLEAR     55  54  94 CALM      29.94S
MADISON        PTCLDY    59  51  75 N3        29.92R
MIDDLETON      CLEAR     55  51  87 CALM      29.93S
WATERTOWN      CLEAR     52  52 100 CALM      29.92R
MONROE         CLEAR     59  54  82 W13       29.94R
JANESVILLE     CLEAR     55  54  94 CALM      29.93R
$$

WIZ051-052-058>065-066-070>072-041200-
SOUTHEAST WISCONSIN

CITY           SKY/WX    TMP DP  RH WIND       PRES   REMARKS
MILWAUKEE      CLEAR     62  52  69 SW3       29.92R
WAUKESHA       CLEAR     54  50  87 CALM      29.93S
MILWAUKEE/TIMM CLEAR     59  50  72 CALM      29.92R
RACINE         CLEAR     61  52  72 W6        29.94R
BURLINGTON     CLEAR     51  50  97 CALM      29.93R
KENOSHA        CLEAR     57  53  86 SW3       29.93R
FOND DU LAC    CLEAR     56  52  86 SW5       29.91R
SHEBOYGAN      PTCLDY    57  54  89 CALM      29.90R
WEST BEND      CLEAR     55  52  88 CALM      29.91S
JUNEAU         CLEAR     53  51  92 CALM      29.92S
$$

LSZ147-162-041200-
LAKE SUPERIOR

STATION/POSITION TIME  TEMP    WIND        PRES    WAVE
                       AIR SEA DIR/SP/G            HT/PER
                 (UTC) (F)     (DEG/KT/KT) (MB)    (FT/S)
W MID LAKE BUOY  0950   56 56  360/  4/  6 1011.3R   1/ 4
DEVILS ISLAND    1000   56     280/ 11/ 12 1012.4R
PORT WING        1000   56     160/  4/  5 1012.9
SAXON HARBOR     1040   61     250/  4     1012.2R
$$

LMZ867-665-643>646-041200-
LAKE MICHIGAN

STATION/POSITION TIME  TEMP    WIND        PRES    WAVE
                       AIR SEA DIR/SP/G            HT/PER
                 (UTC) (F)     (DEG/KT/KT) (MB)    (FT/S)
CHAMBERS ISLAND  1000   62     250/  4/  9 1011.2S
S GREEN BAY BUOY 1000   64 71  290/ 10/ 12 1012.8F
N MID LAKE BUOY  0950   63 67  290/ 12/ 16 1010.0R   1/ 3
NORTHPORT PIER   1000   63     310/ 12/ 16 1011.2R
SISTER BAY       1003   63     310/ 12/ 14   N/A
ALGOMA LAKESHORE 1012             CALM       N/A
KEWAUNEE LAKESHO 1000   59     310/  3/  5 1011.2R
SHEBOYGAN LAKESH 1000   63     270/  8/ 10 1012.2R
PORT WASHINGTON  1000   63     290/  4/  7 1012.9S
ATWATER BUOY     1000   61 53  250/  6/  8 1013.9R
MILWAUKEE LAKESH 1000   66     280/  5/  7   N/A
KENOSHA   LAKESH 1000   64     270/  9/ 11 1012.9R
$$

TC  - TEMPERATURE IN CELSIUS
VSB - VISIBILITY IN STATUTE MILES
WCI - WIND CHILL INDEX
HX  - HEAT INDEX




USA.gov is the U.S. government's official web portal to all federal, state and local government web resources and services.